Regional Weather Roundup
Issued by NWS

Home | Current Version | Previous Version | Text Only | Print | Product List | Glossary Off
Versions: 1 2 3 4 5 6 7 8 9 10 11 12 13 14 15 16 17 18 19 20 21 22 23 24 25 26 27 28 29 30 31 32 33 34 35 36 37 38 39 40 41 42 43 44 45 46 47 48 49 50

000
ASUS43 KMPX 032310
RWRMN
WEATHER ROUNDUP FOR MINNESOTA
NATIONAL WEATHER SERVICE TWIN CITIES/CHANHASSEN MN
500 PM CST SAT DEC 03 2016


NOTE: "FAIR" INDICATES FEW OR NO CLOUDS BELOW 12,000 FEET WITH NO
SIGNIFICANT WEATHER AND/OR OBSTRUCTIONS TO VISIBILITY. N/A MEANS
CURRENT SKY AND/OR WEATHER CONDITIONS ARE NOT AVAILABLE.

MNZ060>063-068>070-040000-
   Twin Cities Metro

CITY           SKY/WX    TMP DP  RH WIND       PRES   REMARKS
TWIN CITIES    CLOUDY    31  21  66 SE8       30.23S WCI  23
ST PAUL        CLOUDY    31  23  72 SE10      30.24F WCI  22
CRYSTAL        CLOUDY    31  20  63 SE8       30.21S WCI  23
BLAINE         CLOUDY    32  23  69 SE5       30.22F WCI  27
LAKEVILLE      CLOUDY    28  25  86 SE6       30.22S WCI  22
EDEN PRAIRIE   CLOUDY    32  22  66 SE10      30.21S WCI  24
SOUTH ST PAUL  CLOUDY    32  23  69 SE8       30.24S WCI  25
LAKE ELMO      MOCLDY    30  23  74 SE5       30.24S WCI  25
$$
MNZ001>005-007-008-013>017-022>024-027-028-040000-
   Northwest Minnesota

CITY           SKY/WX    TMP DP  RH WIND       PRES   REMARKS
BEMIDJI        CLEAR     24  19  81 SE8       30.11R WCI  14
HALLOCK        CLEAR     28  25  86 SE13      30.03S WCI  18
ROSEAU         CLOUDY    27  21  80 SE12      30.08S WCI  16
WARROAD        CLOUDY    27  21  80 SE10      30.09F WCI  17
THIEF RVR FALL CLEAR     25  21  85 SE13      30.07S WCI  14
CROOKSTON      PTCLDY    28  25  86 SE14      30.06S WCI  17
FOSSTON        CLOUDY    25  19  80 SE7       30.08S WCI  17
DETROIT LAKES  CLOUDY    30  25  80 SE14      30.07F WCI  20
MOORHEAD       LGT RAIN  30  27  86 S17G26    30.06S WCI  18
PARK RAPIDS    MOCLDY    26  17  68 SE12      30.12S WCI  16
$$
MNZ006-009>011-018-025>026-040000-
   North Central Minnesota

CITY           SKY/WX    TMP DP  RH WIND       PRES   REMARKS
BAUDETTE       CLOUDY    25  19  78 SE8       30.10F WCI  16
FLAG ISLAND    CLOUDY    27  21  80 SE23      30.08F WCI  12
INTL FALLS     CLOUDY    26  19  74 S5        30.14F WCI  20
WASKISH        CLOUDY    25  21  86 SE7       30.12S WCI  17
BIG FORK       PTCLDY    27  19  74 SE6       30.14S WCI  20
LONGVILLE      CLOUDY    27  19  74 SE8       30.15S WCI  18
GRAND RAPIDS   CLOUDY    27  20  75 S9        30.17R WCI  18
CRANE LAKE     CLOUDY    27  19  74 S3        30.19S
ORR            CLOUDY    27  18  69 S3        30.13S
COOK           CLOUDY    27  19  74 SE5       30.16F WCI  21
$$
MNZ012-019>021-037-040000-
   Northeast Minnesota

CITY           SKY/WX    TMP DP  RH WIND       PRES   REMARKS
DULUTH         CLOUDY    29  20  69 S9        30.18R WCI  20
ELY            CLOUDY    27  25  93 CALM      30.17S
HIBBING        CLOUDY    26  18  71 S6        30.16S WCI  19
EVELETH        CLOUDY    28  19  71 SE9       30.17F WCI  19
DULUTH HARBOR  CLOUDY    34  23  64 S6        30.23S WCI  29
TWO HARBORS    MOCLDY    32  25  74 S6        30.18S WCI  26
SILVER BAY     CLOUDY    30  25  80 CALM      30.18F
GRAND MARAIS     N/A     34  28  79 S3        30.23S
G MARAIS ARPRT CLOUDY    27  19  74 CALM      30.17F
$$
MNZ029>031-032-039>041-046>048-054>057-064-040000-
   West Central Minnesota

CITY           SKY/WX    TMP DP  RH WIND       PRES   REMARKS
FERGUS FALLS   LGT SNOW  30  28  93 S13G23    30.13R WCI  20
WHEATON        CLOUDY   N/A N/A N/A SE17      30.08F
MORRIS         MOCLDY    32  28  86 SE15      30.09F WCI  22
ALEXANDRIA     CLOUDY    30  27  88 SE13      30.12S FOG     WCI  20
ELBOW LAKE     LGT SNOW  30  28  94 E16       30.10S WCI  19
WADENA         CLOUDY    27  21  80 SE9G17    30.11F WCI  17
GLENWOOD       CLOUDY    30  27  86 SE13      30.13S WCI  20
APPLETON       LGT SNOW  36  30  80 SE12      30.09F
BENSON         FLURRIES  32  28  86 S13       30.11F WCI  22
ORTONVILLE     LGT SNOW  34  30  86 SE13      30.07F WCI  25
MADISON        MIX PCPN  36  36 100 SE8       30.09F
WILLMAR        CLOUDY    34  30  86 SE13      30.15F WCI  25
$$
MNZ033>034-036-042>043-049>051-058-059-040000-
   Central Minnesota

CITY           SKY/WX    TMP DP  RH WIND       PRES   REMARKS
ST CLOUD       CLOUDY    30  22  72 SE9       30.18F WCI  22
PAYNESVILLE    CLOUDY    31  26  82 SE12      30.16S WCI  22
AITKIN         CLOUDY    30  19  64 S8        30.16S WCI  23
PINE RIVER     PTCLDY    25  19  80 SE5       30.17F WCI  19
BRAINERD       PTCLDY    26  20  77 S9        30.17F WCI  17
STAPLES        CLOUDY    27  19  74 SE7       30.14S WCI  19
LONG PRAIRIE   LGT SNOW  28  25  86 E10       30.14F WCI  19
LITTLE FALLS   CLOUDY    30  21  69 SE7       30.17F WCI  23
LITCHFIELD     CLOUDY    32  28  86 SE7       30.18S WCI  26
BUFFALO        CLOUDY    31  23  71 SE6       30.20F WCI  25
MAPLE LAKE     CLOUDY    32  26  78 SE8       30.20S WCI  25
HUTCHINSON     CLOUDY    32  28  86 SE8       30.19S WCI  25
$$
MNZ037-044-045-052-053-040000-
   East Central Minnesota

CITY           SKY/WX    TMP DP  RH WIND       PRES   REMARKS
PRINCETON      CLOUDY    30  21  69 SE5       30.21S WCI  25
MORA           MOCLDY    30  21  69 S5        30.22F WCI  25
CAMBRIDGE      PTCLDY    30  19  64 SE3       30.20S
RUSH CITY      CLOUDY    30  21  69 S8        30.22F WCI  23
MOOSE LAKE     CLOUDY    30  19  64 S7        30.19R WCI  23
HINCKLEY       CLOUDY    32  23  69 S6        30.22S WCI  26
CLOQUET        CLOUDY    28  19  69 S5        30.19R WCI  23
MCGREGOR       CLOUDY    30  23  74 S8        30.19R WCI  23
$$
MNZ071>073-080-081-089-090-097-098-040000-
   Southwest Minnesota

CITY           SKY/WX    TMP DP  RH WIND       PRES   REMARKS
MONTEVIDEO     DRIZZLE   34  32  93 S8        30.13F WCI  27
GRANITE FALLS  LGT RAIN  37  34  90 SE9       30.14F
CANBY          CLOUDY    37  33  86 CALM      30.09F
MARSHALL       CLOUDY    35  31  85 S12       30.11F WCI  27
REDWOOD FALLS  CLOUDY    34  29  82 SE9       30.15F WCI  27
OLIVIA         MOCLDY    34  32  93 SE10      30.14F WCI  26
PIPESTONE      LGT SNOW  34  32  93 S15       30.07F WCI  24
WINDOM         LGT RAIN  36  32  87 S10       30.14S
WORTHINGTON    LGT SNOW  33  31  92 S13       30.13S FOG     WCI  24
JACKSON        MIX PCPN  32  32 100 S10       30.16S WCI  24
TRACY          CLOUDY    36  32  87 S12G18    30.11F
SLAYTON        LGT SNOW  32  31  97 S12       30.12S WCI  23
$$
MNZ065>067-074>077-082>085-091>093-040000-
   South Central Minnesota

CITY           SKY/WX    TMP DP  RH WIND       PRES   REMARKS
MANKATO        CLOUDY    32  28  86 SE12      30.20F WCI  23
NEW ULM        CLOUDY    34  28  80 SE8       30.18S WCI  27
ST JAMES       CLOUDY    36  32  87 S12       30.18S
FAIRMONT       LGT RAIN  35  33  92 S10       30.18S WCI  27
GLENCOE        CLOUDY    33  29  86 SE7       30.19S WCI  27
FARIBAULT      CLOUDY    32  27  80 SE7       30.22S WCI  26
OWATONNA       CLOUDY    32  25  74 SE8       30.21F WCI  25
WASECA         CLOUDY    32  28  86 SE8       30.21S WCI  25
ALBERT LEA     FLURRIES  37  30  75 S8        30.21F
$$
MNZ078>079-086>088-094>096-040000-
   Southeast Minnesota

CITY           SKY/WX    TMP DP  RH WIND       PRES   REMARKS
ROCHESTER      CLOUDY    31  24  75 SE5       30.23F WCI  26
RED WING       CLOUDY    30  21  69 S3        30.25S
STANTON        CLOUDY    32  25  74 SE5       30.21F WCI  28
DODGE CENTER   MOCLDY    30  25  80 SE7       30.22S WCI  23
WINONA         CLOUDY    34  25  69 CALM      30.28R
AUSTIN         CLOUDY    32  27  80 SE5       30.22S WCI  27
PRESTON        CLOUDY    30  22  72 CALM      30.24F
$$
ABBREVIATIONS USED IN REMARKS
   TC - TEMPERATURES IN CELSIUS
  WCI - WIND CHILL INDEX
   HX - HEAT INDEX
  VSB - VISIBILITY
$$




USA.gov is the U.S. government's official web portal to all federal, state and local government web resources and services.